NETSAT-2

Last updated on Sat Aug 15 2026 00:03:44 GMT+0000 (Coordinated Universal Time)

1 46507U 20068X 26226.50143729 .00014025 00000+0 26725-3 0 9993 2 46507 97.8616 239.6463 0005655 124.1070 236.0716 15.48301116324756
UTC large
Height (km)
Speed (km/s)
/
Latitude / Longitude
Inclination (degrees)
Orbital Period (minutes)
Azimuth
Elevation
Range (km)
Doppler Factor

Next 0 passes for location: London (51.5072 / 0.1276)

No passes found over London.
NETSAT-2